Location: Guferjoch
(46.7462°N, 8.4506°E)
Time: 23:51:05
(UTC+00:00)

Cosmos 1437 Rocket - Pass Details

Date: 14 July 2020
Orbit: 506 x 562 km, 81.2° (Epoch: 14 August)

Event Time Altitude Azimuth Distance (km) Brightness Sun altitude
Rises 00:30:06 0° 356° (N) 2,741 7.7 -20.4°
Reaches altitude 10° 00:32:27 10° 6° (N) 1,833 6.7 -20.3°
Maximum altitude 00:36:09 34° 72° (ENE) 908 4.2 -20.1°
Enters shadow 00:38:10 21° 123° (ESE) 1,247 4.4 -20.0°
